sat.trackr.live / text

‹ back to catalog

STARLINK-11606 [DTC]

NORAD 63559 · 2025-075M

PAYLOAD ACTIVE UNKNOWN

§ Identity

Operator
Country
US
Launch date
2025-04-13
Launch site
AFETR
Launch vehicle
Mass (kg)
RCS (m²)

Purposes: comms

External: N2YO · Heavens-Above · Gunter

§ Orbital elements

Epoch: 2026-09-19T18:02:54.775968Z

Period
91.67 min
Inclination
43.0008°
Eccentricity
0.0001990
Mean motion
15.70901079 rev/d
Perigee alt
355.0 km
Apogee alt
357.7 km
Semi-major
6,734.5 km
B*
1.0963e-3
RAAN
63.6914°
Arg perigee
261.3973°
Mean anomaly
98.6669°
Rev number
8,377

§ Raw data

STARLINK-11606 [DTC]1 63559U 25075M   26262.75202287  .00143039  00000+0  10963-2 0  99982 63559  43.0008  63.6914 0001990 261.3973  98.6669 15.70901079 83772

JSON: /api/v1/satellites/63559 · /tle

For live sub-satellite position, see the globe view (requires WebGL).

§ Visibility from observer

Set your observer location to see the next 7 days of passes ≥ 10°. The values pass through the URL so the page stays shareable.

No JS? Fill the form by hand. The geolocation button needs JavaScript.